QPF
0.01 0.01 0.00 0.03 0.05 0.02 0.00 0.00 0.00 0.00 0.00 0.00 0.00 0.00 0.00 0.00 0.01 0.02 0.02 0.00 0.00 0.00 0.00 0.00 0.00 0.00 0.00 0.00 0.01 0.02 0.01 0.00 0.00 0.00 0.00 0.00 0.00 0.00 0.02 0.01 0.01 0.01 0.01 0.01
0.01 0.01 0.00 0.02 0.04 0.03 0.00 0.01 0.00 0.00 0.00 0.00 0.00 0.00 0.00 0.01 0.00 0.02 0.01 0.00 0.00 0.00 0.00 0.00 0.00 0.00 0.00 0.00 0.00 0.01 0.00 0.00 0.00 0.00 0.00 0.00 0.00 0.00 0.01 0.02 0.00 0.00 0.00 0.01
0.00 0.01 0.01 0.01 0.03 0.03 0.00 0.00 0.00 0.00 0.00 0.00 0.00 0.00 0.00 0.00 0.00 0.00 0.00 0.00 0.00 0.00 0.00 0.00 0.00 0.00 0.00 0.00 0.00 0.00 0.00 0.00 0.00 0.00 0.00 0.00 0.00 0.00 0.00 0.00 0.00 0.00 0.00 0.00
0.00 0.01 0.01 0.01 0.04 0.03 0.01 0.00 0.01 0.00 0.00 0.00 0.00 0.01 0.00 0.00 0.00 0.00 0.00 0.00 0.00 0.00 0.00 0.00 0.00 0.01 0.00 0.00 0.00 0.00 0.00 0.00 0.00 0.00 0.00 0.00 0.00 0.00 0.00 0.00 0.00 0.00 0.00 0.00
0.01 0.01 0.01 0.03 0.04 0.06 0.00 0.00 0.01 0.02 0.00 0.00 0.00 0.00 0.02 0.01 0.00 0.00 0.00 0.00 0.00 0.00 0.00 0.00 0.00 0.01 0.00 0.00 0.00 0.00 0.00 0.00 0.00 0.00 0.00 0.00 0.00 0.00 0.00 0.00 0.00 0.00 0.00 0.00
0.01 0.01 0.02 0.01 0.04 0.03 0.00 0.00 0.01 0.03 0.02 0.02 0.01 0.00 0.01 0.03 0.04 0.01 0.00 0.00 0.01 0.01 0.01 0.00 0.00 0.00 0.00 0.00 0.00 0.00 0.00 0.00 0.00 0.00 0.00 0.00 0.00 0.00 0.00 0.00 0.00 0.00 0.00 0.00
0.01 0.02 0.03 0.02 0.03 0.02 0.00 0.01 0.03 0.04 0.02 0.03 0.02 0.00 0.00 0.00 0.03 0.03 0.02 0.01 0.01 0.01 0.00 0.00 0.00 0.00 0.00 0.00 0.00 0.00 0.00 0.00 0.00 0.00 0.00 0.00 0.00 0.00 0.00 0.00 0.00 0.00 0.00 0.00
0.02 0.02 0.02 0.02 0.02 0.01 0.01 0.02 0.01 0.03 0.01 0.02 0.04 0.02 0.01 0.01 0.01 0.02 0.02 0.01 0.00 0.00 0.00 0.00 0.00 0.00 0.00 0.00 0.00 0.00 0.00 0.00 0.00 0.00 0.00 0.00 0.00 0.00 0.00 0.00 0.00 0.00 0.00 0.00
0.03 0.02 0.01 0.02 0.01 0.02 0.01 0.00 0.00 0.01 0.00 0.00 0.01 0.03 0.03 0.01 0.00 0.00 0.00 0.00 0.00 0.00 0.00 0.00 0.00 0.00 0.00 0.00 0.00 0.00 0.00 0.00 0.00 0.00 0.00 0.00 0.00 0.00 0.00 0.00 0.00 0.00 0.00 0.00
0.03 0.02 0.01 0.01 0.02 0.02 0.01 0.00 0.01 0.02 0.00 0.00 0.01 0.01 0.01 0.00 0.00 0.00 0.00 0.00 0.00 0.00 0.00 0.00 0.00 0.00 0.00 0.00 0.00 0.00 0.00 0.00 0.00 0.00 0.00 0.00 0.00 0.00 0.00 0.00 0.00 0.00 0.00 0.00
0.01 0.01 0.02 0.01 0.01 0.02 0.01 0.00 0.00 0.01 0.00 0.00 0.00 0.00 0.00 0.00 0.00 0.00 0.00 0.00 0.00 0.00 0.00 0.00 0.01 0.01 0.00 0.00 0.00 0.00 0.00 0.00 0.00 0.00 0.00 0.00 0.00 0.00 0.00 0.00 0.00 0.00 0.00 0.00
0.00 0.01 0.01 0.01 0.01 0.01 0.01 0.01 0.01 0.01 0.00 0.00 0.00 0.00 0.00 0.00 0.00 0.00 0.00 0.00 0.00 0.00 0.00 0.00 0.00 0.01 0.00 0.00 0.00 0.00 0.00 0.00 0.00 0.00 0.00 0.00 0.00 0.00 0.00 0.00 0.00 0.00 0.00 0.00
0.00 0.01 0.01 0.00 0.00 0.00 0.01 0.00 0.01 0.01 0.01 0.00 0.00 0.00 0.00 0.00 0.00 0.00 0.00 0.00 0.00 0.00 0.00 0.01 0.01 0.01 0.00 0.00 0.00 0.00 0.00 0.00 0.00 0.00 0.00 0.00 0.00 0.00 0.00 0.00 0.00 0.00 0.00 0.00
0.00 0.00 0.01 0.00 0.00 0.00 0.01 0.00 0.00 0.02 0.01 0.00 0.00 0.00 0.00 0.00 0.00 0.00 0.00 0.00 0.00 0.00 0.00 0.01 0.02 0.02 0.01 0.01 0.00 0.00 0.00 0.00 0.00 0.00 0.00 0.00 0.00 0.00 0.00 0.00 0.00 0.00 0.00 0.00
0.00 0.00 0.00 0.00 0.00 0.01 0.01 0.00 0.00 0.00 0.01 0.00 0.00 0.00 0.00 0.00 0.00 0.00 0.00 0.00 0.00 0.00 0.00 0.00 0.01 0.00 0.00 0.00 0.00 0.00 0.00 0.00 0.00 0.00 0.00 0.00 0.00 0.00 0.00 0.00 0.00 0.00 0.00 0.00
0.00 0.00 0.00 0.00 0.00 0.02 0.01 0.00 0.00 0.00 0.00 0.00 0.00 0.00 0.00 0.00 0.00 0.00 0.00 0.00 0.00 0.00 0.00 0.00 0.00 0.00 0.00 0.00 0.00 0.00 0.00 0.00 0.00 0.00 0.00 0.00 0.00 0.00 0.00 0.00 0.00 0.00 0.00 0.00
0.00 0.00 0.00 0.00 0.01 0.00 0.00 0.00 0.00 0.00 0.01 0.00 0.00 0.00 0.00 0.00 0.00 0.00 0.00 0.00 0.00 0.00 0.00 0.00 0.00 0.00 0.00 0.00 0.00 0.00 0.00 0.00 0.00 0.00 0.00 0.00 0.00 0.00 0.00 0.00 0.00 0.00 0.00 0.00
0.00 0.00 0.00 0.00 0.00 0.00 0.00 0.00 0.00 0.01 0.01 0.00 0.00 0.00 0.00 0.00 0.00 0.00 0.00 0.00 0.00 0.00 0.00 0.00 0.00 0.00 0.00 0.00 0.00 0.00 0.00 0.00 0.00 0.00 0.00 0.00 0.00 0.00 0.00 0.00 0.00 0.00 0.00 0.00
0.00 0.00 0.00 0.01 0.01 0.01 0.00 0.00 0.00 0.00 0.00 0.00 0.00 0.00 0.00 0.00 0.00 0.00 0.00 0.00 0.00 0.00 0.00 0.00 0.00 0.00 0.00 0.00 0.00 0.00 0.00 0.00 0.00 0.00 0.00 0.00 0.00 0.00 0.00 0.00 0.00 0.00 0.00 0.00
0.00 0.00 0.02 0.02 0.00 0.00 0.00 0.00 0.00 0.00 0.00 0.00 0.00 0.00 0.00 0.00 0.00 0.00 0.00 0.00 0.00 0.00 0.00 0.00 0.00 0.00 0.00 0.00 0.00 0.00 0.00 0.00 0.00 0.00 0.00 0.00 0.00 0.00 0.00 0.00 0.00 0.00 0.00 0.00
0.00 0.01 0.00 0.00 0.00 0.00 0.00 0.00 0.00 0.00 0.00 0.00 0.00 0.00 0.00 0.00 0.00 0.00 0.00 0.00 0.00 0.00 0.00 0.00 0.00 0.00 0.00 0.00 0.00 0.00 0.00 0.00 0.00 0.00 0.00 0.00 0.00 0.00 0.00 0.00 0.00 0.00 0.00 0.00
0.00 0.00 0.00 0.00 0.00 0.00 0.00 0.00 0.00 0.00 0.00 0.00 0.00 0.00 0.00 0.00 0.00 0.00 0.00 0.00 0.00 0.01 0.01 0.00 0.00 0.00 0.00 0.00 0.00 0.00 0.00 0.00 0.00 0.00 0.00 0.00 0.00 0.00 0.00 0.00 0.00 0.00 0.00 0.00
0.00 0.00 0.00 0.00 0.00 0.00 0.00 0.00 0.00 0.00 0.00 0.00 0.00 0.00 0.00 0.00 0.00 0.00 0.00 0.00 0.00 0.00 0.00 0.00 0.00 0.00 0.00 0.00 0.00 0.00 0.00 0.00 0.00 0.00 0.00 0.00 0.00 0.00 0.00 0.00 0.00 0.00 0.00 0.00
0.00 0.00 0.00 0.00 0.00 0.00 0.00 0.00 0.00 0.00 0.00 0.01 0.00 0.00 0.00 0.00 0.00 0.00 0.00 0.00 0.00 0.00 0.01 0.01 0.00 0.00 0.00 0.00 0.00 0.00 0.00 0.00 0.00 0.00 0.00 0.00 0.00 0.00 0.00 0.00 0.00 0.00 0.00 0.00
0.00 0.00 0.00 0.00 0.00 0.00 0.00 0.00 0.00 0.00 0.00 0.00 0.00 0.00 0.00 0.00 0.00 0.00 0.00 0.00 0.00 0.00 0.01 0.00 0.00 0.00 0.00 0.00 0.00 0.00 0.00 0.00 0.00 0.00 0.00 0.00 0.00 0.00 0.00 0.00 0.00 0.00 0.00 0.00
0.00 0.00 0.00 0.01 0.00 0.00 0.00 0.00 0.00 0.00 0.01 0.01 0.00 0.00 0.00 0.00 0.00 0.00 0.00 0.00 0.01 0.00 0.00 0.00 0.00 0.00 0.00 0.00 0.00 0.00 0.00 0.00 0.00 0.00 0.00 0.00 0.00 0.00 0.00 0.00 0.00 0.00 0.00 0.00
0.00 0.00 0.00 0.01 0.00 0.00 0.00 0.00 0.00 0.01 0.02 0.01 0.00 0.00 0.00 0.00 0.00 0.00 0.00 0.00 0.00 0.00 0.00 0.00 0.00 0.00 0.00 0.00 0.00 0.00 0.00 0.00 0.00 0.00 0.00 0.00 0.00 0.00 0.00 0.00 0.00 0.00 0.00 0.00
MSLP
1008.90 1009.26 1009.42 1009.83 1010.33 1011.27 1011.88 1012.08 1012.19 1012.28 1012.35 1012.81 1012.10 1010.55 1009.55 1008.01 1007.29 1006.62 1006.14 1006.30 1006.11 1006.14 1005.85 1006.12 1006.33 1006.60 1007.02 1007.17 1006.81 1007.28 1008.07 1009.00 1008.97 1008.39 1008.11 1008.21 1008.55 1009.14 1010.09 1011.51 1011.95 1011.92 1011.70 1012.32
1008.40 1008.69 1008.97 1009.41 1009.85 1010.58 1011.44 1011.49 1012.26 1012.18 1012.33 1011.81 1011.40 1010.39 1009.31 1008.16 1007.18 1006.79 1006.65 1005.92 1005.91 1005.87 1006.09 1006.41 1006.55 1006.74 1007.39 1007.59 1007.86 1008.35 1008.65 1009.53 1009.23 1008.46 1008.46 1008.18 1008.05 1008.18 1009.03 1010.06 1011.07 1011.46 1011.87 1012.39
1007.78 1008.05 1008.47 1008.91 1009.13 1009.79 1010.25 1010.97 1011.77 1012.02 1012.22 1011.69 1010.85 1010.05 1009.14 1008.57 1007.58 1006.39 1005.90 1005.55 1005.90 1006.25 1006.32 1006.35 1006.74 1007.51 1007.79 1007.89 1007.79 1008.51 1008.58 1008.49 1008.29 1008.24 1008.46 1008.47 1008.00 1008.04 1008.40 1009.28 1010.33 1010.83 1011.45 1012.13
1007.20 1007.34 1007.71 1008.15 1008.58 1009.02 1010.15 1009.89 1009.58 1010.11 1010.89 1010.75 1010.32 1009.70 1008.58 1007.94 1007.01 1005.78 1005.51 1005.76 1005.78 1006.45 1006.81 1006.59 1006.89 1007.50 1008.19 1008.26 1008.31 1008.87 1009.36 1009.34 1008.72 1008.33 1008.44 1008.18 1008.23 1007.79 1008.17 1008.78 1009.53 1010.51 1011.22 1012.47
1006.56 1006.71 1006.95 1007.30 1007.77 1008.31 1009.34 1009.18 1009.26 1009.08 1008.88 1009.14 1009.64 1009.15 1007.76 1007.13 1006.51 1006.21 1005.69 1005.59 1005.85 1006.22 1006.45 1006.70 1007.09 1007.62 1008.63 1008.17 1008.70 1009.11 1009.55 1009.72 1009.32 1009.19 1008.80 1008.53 1008.70 1008.55 1008.69 1009.15 1009.76 1010.54 1012.14 1014.03
1005.65 1005.90 1006.40 1006.56 1006.60 1008.06 1008.92 1008.92 1008.13 1008.51 1008.26 1008.23 1008.72 1007.91 1007.01 1006.17 1005.72 1005.30 1004.93 1005.07 1005.71 1005.91 1006.20 1006.94 1007.22 1007.63 1007.91 1008.33 1008.76 1009.36 1009.79 1009.96 1009.97 1010.03 1009.48 1009.34 1009.58 1009.64 1009.74 1010.44 1011.51 1011.88 1013.03 1014.70
1004.79 1005.20 1005.51 1006.02 1006.43 1007.25 1007.78 1007.60 1007.96 1008.02 1007.58 1007.23 1006.86 1006.50 1006.44 1005.94 1005.61 1006.00 1005.37 1005.21 1005.70 1006.66 1006.53 1007.27 1007.71 1008.09 1008.72 1008.83 1009.13 1009.19 1009.75 1010.38 1010.36 1010.22 1010.10 1010.60 1010.58 1010.66 1011.05 1012.05 1013.55 1013.98 1014.73 1015.89
1003.85 1004.24 1004.79 1005.46 1006.09 1006.74 1007.42 1007.17 1007.75 1007.98 1007.54 1006.89 1006.35 1006.14 1005.80 1005.86 1005.75 1006.32 1006.22 1005.60 1005.73 1006.47 1007.01 1008.30 1009.06 1008.97 1009.11 1009.05 1008.88 1009.16 1009.58 1010.04 1010.53 1010.98 1011.23 1011.51 1011.47 1011.86 1012.56 1013.16 1015.26 1015.93 1016.46 1017.30
1002.92 1003.48 1004.13 1004.71 1005.44 1005.99 1006.57 1007.22 1007.60 1008.16 1007.71 1006.84 1006.36 1005.57 1005.20 1005.88 1006.57 1006.90 1006.94 1006.32 1005.92 1006.54 1007.93 1008.92 1009.39 1009.47 1009.11 1009.21 1009.24 1009.39 1009.73 1010.10 1011.09 1011.54 1012.14 1012.40 1012.72 1012.69 1013.26 1014.06 1016.10 1017.05 1017.68 1018.37
1002.10 1002.93 1003.54 1004.06 1004.11 1005.15 1006.33 1007.19 1007.68 1007.83 1007.53 1006.98 1006.36 1005.36 1005.54 1005.75 1006.47 1007.02 1006.79 1006.34 1006.58 1006.95 1008.31 1009.32 1009.37 1009.16 1008.55 1008.95 1009.20 1009.65 1010.23 1010.91 1011.70 1012.36 1012.90 1013.59 1013.47 1013.48 1014.04 1015.73 1017.58 1017.79 1018.57 1019.28
1001.80 1002.43 1003.04 1003.65 1003.73 1004.94 1006.00 1007.07 1007.45 1007.59 1007.70 1006.95 1005.33 1005.20 1005.28 1005.59 1005.94 1006.39 1006.66 1006.85 1007.20 1007.94 1008.57 1009.08 1009.16 1009.37 1008.69 1008.96 1009.39 1009.55 1010.46 1011.52 1012.45 1013.21 1013.84 1014.76 1014.73 1014.81 1015.52 1016.73 1017.74 1018.42 1019.37 1020.13
1001.25 1002.01 1002.82 1003.52 1004.23 1005.04 1006.09 1006.97 1007.22 1007.29 1007.76 1007.30 1006.51 1006.05 1005.61 1005.39 1005.17 1005.21 1005.97 1006.12 1006.66 1007.23 1007.74 1008.32 1008.79 1009.15 1008.94 1009.15 1009.82 1009.91 1010.86 1011.46 1012.72 1014.27 1014.94 1015.55 1015.85 1016.15 1016.55 1017.10 1018.25 1019.19 1020.02 1020.88
1000.25 1001.57 1002.38 1003.32 1004.37 1005.25 1006.21 1006.70 1007.21 1007.41 1007.36 1007.01 1006.29 1005.85 1005.27 1005.01 1004.52 1004.32 1005.14 1005.61 1006.10 1006.66 1006.91 1007.72 1007.98 1008.31 1008.63 1009.34 1009.75 1010.45 1011.06 1011.52 1013.05 1014.41 1015.81 1016.31 1016.81 1017.18 1017.57 1018.14 1018.95 1019.91 1020.66 1021.42
1000.31 1001.40 1002.59 1003.71 1004.68 1005.46 1006.19 1006.54 1007.03 1007.05 1007.15 1006.99 1006.27 1005.41 1005.07 1004.55 1004.38 1004.50 1004.73 1005.38 1005.76 1006.45 1007.06 1007.76 1008.05 1008.43 1008.46 1009.24 1009.59 1010.25 1010.62 1011.67 1013.30 1014.89 1015.87 1016.72 1017.34 1017.83 1018.34 1019.05 1019.78 1020.48 1021.38 1022.03
1001.29 1002.19 1003.15 1004.08 1004.91 1005.63 1006.23 1006.75 1006.98 1006.76 1007.20 1006.77 1006.38 1005.67 1005.19 1004.85 1004.87 1005.07 1005.20 1005.62 1006.26 1006.96 1007.61 1007.88 1008.32 1008.25 1008.69 1009.20 1009.97 1010.96 1011.13 1011.89 1013.00 1013.76 1014.48 1015.56 1017.02 1018.05 1018.81 1019.37 1019.99 1020.71 1021.42 1022.15
1002.04 1002.73 1003.50 1004.27 1005.07 1005.77 1006.55 1007.03 1006.53 1006.19 1006.53 1006.44 1006.82 1006.41 1005.90 1005.52 1005.41 1005.55 1005.87 1006.19 1006.52 1006.95 1007.36 1007.90 1008.22 1008.14 1008.77 1010.06 1011.22 1011.80 1011.84 1012.11 1012.32 1013.83 1014.76 1015.52 1016.92 1018.05 1018.81 1019.37 1019.98 1020.71 1021.41 1022.09
1002.59 1003.31 1004.06 1004.78 1005.33 1006.11 1006.30 1006.28 1006.12 1005.90 1006.17 1006.41 1007.33 1007.29 1006.76 1006.50 1006.25 1006.45 1006.52 1006.36 1006.70 1007.11 1007.59 1008.12 1008.46 1008.69 1008.83 1010.10 1011.59 1012.23 1012.66 1013.10 1013.60 1014.24 1015.03 1016.64 1017.38 1017.97 1018.75 1019.22 1019.92 1020.72 1021.48 1022.14
1003.07 1003.74 1004.42 1005.06 1005.62 1005.99 1005.93 1005.70 1005.65 1005.92 1005.89 1006.02 1006.93 1007.81 1007.84 1007.16 1007.18 1007.32 1007.15 1007.34 1007.47 1007.82 1008.21 1008.31 1008.86 1009.12 1009.41 1011.23 1012.06 1012.45 1013.07 1013.59 1014.20 1014.54 1014.82 1015.96 1017.02 1018.02 1018.79 1019.49 1020.10 1020.84 1021.54 1022.16
1003.67 1004.23 1004.92 1005.65 1006.04 1005.92 1005.66 1005.40 1005.39 1005.40 1005.87 1006.07 1006.76 1007.58 1007.92 1007.56 1007.65 1007.71 1007.92 1007.95 1008.77 1008.60 1008.88 1009.09 1009.15 1009.81 1010.37 1010.97 1012.08 1012.79 1013.26 1013.68 1014.29 1014.88 1015.53 1016.35 1017.26 1018.15 1019.06 1019.69 1020.30 1021.03 1021.81 1022.57
1004.17 1004.51 1005.11 1005.61 1005.50 1005.54 1005.53 1005.67 1005.62 1005.66 1005.72 1005.94 1006.69 1007.06 1007.71 1007.76 1007.89 1008.41 1008.77 1008.77 1009.19 1009.65 1009.69 1009.53 1010.32 1010.90 1010.78 1011.07 1011.92 1012.71 1013.19 1013.77 1014.28 1015.04 1015.91 1016.57 1017.45 1018.38 1019.16 1019.82 1020.52 1021.39 1022.27 1023.16
1004.84 1005.11 1005.28 1005.51 1005.49 1005.69 1005.85 1006.30 1006.37 1006.37 1006.56 1006.56 1006.99 1007.08 1007.51 1007.73 1008.16 1008.63 1008.91 1009.37 1009.60 1009.95 1010.30 1010.42 1011.12 1011.62 1011.82 1011.88 1012.58 1013.10 1013.59 1014.22 1014.77 1015.27 1016.02 1016.87 1017.69 1018.54 1019.37 1020.18 1021.04 1022.01 1022.95 1024.04
1004.06 1004.24 1004.88 1005.37 1005.83 1006.20 1006.54 1006.94 1006.93 1006.81 1006.88 1006.82 1007.27 1007.42 1007.64 1007.87 1007.96 1009.21 1009.48 1010.00 1010.39 1010.94 1010.65 1011.21 1011.76 1012.47 1012.33 1012.57 1013.10 1013.74 1014.14 1014.68 1015.23 1015.79 1016.55 1017.39 1018.20 1019.00 1019.98 1021.11 1022.11 1023.09 1024.03 1024.94
1004.33 1004.55 1005.34 1005.82 1006.51 1006.93 1007.30 1007.67 1007.47 1007.52 1007.28 1007.27 1007.39 1007.98 1008.42 1008.64 1009.08 1010.03 1010.55 1011.12 1011.40 1011.19 1011.80 1012.07 1012.51 1012.85 1013.16 1013.41 1013.83 1014.41 1014.77 1015.27 1015.90 1016.63 1017.33 1018.19 1019.18 1020.05 1021.15 1022.32 1023.17 1023.96 1024.92 1025.76
1005.08 1005.76 1006.62 1007.22 1007.49 1007.69 1007.89 1007.81 1007.70 1007.92 1007.84 1007.91 1008.44 1008.95 1009.69 1009.97 1010.55 1011.00 1011.52 1011.86 1011.80 1012.22 1012.42 1012.55 1012.91 1013.26 1013.78 1014.16 1014.73 1015.14 1015.89 1016.36 1017.01 1017.76 1018.48 1019.42 1020.36 1021.51 1022.36 1023.03 1023.76 1024.50 1025.57 1026.50
1005.92 1006.46 1007.49 1008.02 1008.36 1008.52 1008.52 1008.30 1008.24 1008.20 1008.06 1008.31 1009.06 1009.67 1010.06 1010.99 1011.47 1011.51 1011.94 1012.44 1012.52 1012.51 1012.68 1012.83 1013.21 1013.73 1014.28 1014.85 1015.45 1016.04 1016.73 1017.43 1018.23 1018.92 1019.63 1020.51 1021.31 1022.24 1023.26 1023.89 1024.43 1025.09 1025.95 1026.80
1007.00 1007.80 1008.29 1008.56 1008.81 1009.17 1009.17 1009.13 1008.95 1008.57 1008.69 1008.64 1009.27 1010.11 1010.80 1011.18 1011.35 1011.86 1011.98 1012.16 1012.52 1013.03 1013.18 1013.47 1013.86 1014.36 1014.96 1015.55 1016.13 1016.72 1017.44 1018.14 1019.11 1019.85 1020.45 1021.18 1022.00 1022.82 1023.71 1024.47 1025.02 1025.66 1026.25 1027.11
1007.96 1008.90 1008.94 1008.97 1009.33 1009.62 1009.70 1009.67 1009.69 1009.16 1009.31 1009.78 1009.75 1010.15 1010.56 1010.73 1011.24 1011.73 1011.75 1012.53 1012.95 1013.35 1013.79 1014.11 1014.52 1015.06 1015.71 1016.31 1016.90 1017.56 1018.22 1018.93 1019.73 1020.46 1021.14 1021.82 1022.54 1023.34 1024.09 1024.80 1025.49 1025.98 1026.60 1027.08
Thickness
5392 5396 5403 5406 5406 5404 5401 5407 5412 5420 5422 5419 5418 5445 5462 5491 5498 5509 5511 5509 5514 5516 5526 5524 5525 5523 5526 5529 5534 5528 5522 5514 5510 5522 5530 5531 5529 5519 5514 5492 5502 5499 5505 5509
5376 5381 5387 5389 5392 5390 5389 5391 5389 5399 5402 5412 5419 5434 5458 5475 5488 5490 5490 5500 5509 5515 5515 5510 5516 5513 5514 5518 5515 5512 5509 5486 5500 5513 5516 5520 5520 5526 5517 5510 5497 5498 5495 5497
5360 5366 5371 5374 5380 5380 5382 5376 5375 5376 5378 5390 5413 5430 5436 5447 5467 5483 5491 5497 5500 5501 5501 5507 5505 5494 5503 5504 5512 5504 5508 5512 5512 5504 5504 5505 5511 5519 5521 5509 5477 5494 5499 5495
5346 5353 5359 5362 5367 5370 5367 5375 5383 5384 5379 5391 5401 5422 5437 5447 5461 5478 5486 5484 5489 5486 5482 5493 5492 5495 5489 5493 5496 5494 5490 5485 5505 5512 5508 5510 5509 5516 5518 5514 5508 5488 5501 5481
5338 5344 5349 5353 5359 5363 5362 5370 5378 5392 5399 5400 5391 5402 5429 5435 5454 5459 5471 5474 5481 5481 5477 5484 5482 5476 5463 5480 5483 5481 5482 5466 5491 5488 5502 5505 5499 5504 5507 5509 5508 5505 5480 5450
5333 5337 5339 5345 5353 5350 5348 5362 5380 5384 5389 5396 5391 5401 5423 5443 5453 5466 5473 5475 5473 5475 5478 5472 5475 5472 5476 5477 5467 5460 5462 5459 5466 5457 5489 5491 5476 5488 5495 5490 5470 5482 5460 5444
5327 5330 5335 5337 5343 5349 5358 5369 5372 5381 5390 5390 5405 5421 5420 5437 5448 5439 5460 5463 5457 5460 5469 5465 5465 5463 5459 5461 5461 5464 5457 5454 5454 5463 5468 5453 5465 5474 5472 5454 5439 5444 5445 5432
5326 5328 5331 5333 5338 5350 5356 5366 5369 5374 5382 5401 5414 5415 5427 5432 5443 5434 5437 5455 5457 5455 5454 5436 5434 5437 5448 5455 5464 5462 5465 5452 5445 5440 5451 5459 5462 5454 5434 5429 5420 5415 5413 5410
5326 5329 5333 5339 5345 5354 5358 5361 5365 5366 5379 5388 5405 5415 5427 5415 5413 5416 5418 5442 5448 5449 5423 5416 5419 5417 5438 5438 5450 5461 5459 5457 5431 5440 5434 5427 5425 5448 5441 5434 5407 5400 5392 5389
5328 5332 5339 5346 5357 5358 5357 5357 5360 5366 5374 5385 5397 5409 5408 5416 5410 5409 5420 5432 5435 5438 5408 5407 5418 5432 5457 5436 5440 5437 5435 5432 5436 5430 5425 5421 5432 5442 5439 5403 5398 5391 5385 5374
5330 5338 5346 5352 5360 5358 5357 5354 5358 5366 5368 5378 5400 5408 5407 5412 5412 5406 5414 5410 5415 5417 5413 5421 5419 5422 5436 5436 5426 5441 5432 5425 5422 5428 5423 5417 5408 5419 5416 5389 5384 5380 5373 5363
5341 5346 5349 5353 5356 5355 5352 5352 5358 5364 5364 5376 5387 5396 5403 5412 5420 5419 5416 5419 5423 5417 5421 5427 5434 5426 5421 5430 5422 5440 5414 5413 5411 5407 5401 5395 5395 5391 5393 5391 5377 5371 5365 5356
5353 5353 5355 5355 5353 5352 5351 5354 5356 5362 5368 5377 5387 5395 5406 5413 5421 5427 5419 5424 5427 5426 5427 5418 5427 5436 5429 5413 5410 5421 5427 5429 5399 5398 5389 5386 5384 5385 5382 5378 5371 5363 5359 5351
5357 5357 5354 5351 5349 5350 5352 5355 5357 5365 5368 5371 5384 5401 5407 5416 5421 5425 5428 5424 5425 5423 5421 5415 5416 5417 5428 5421 5425 5419 5427 5424 5404 5391 5386 5383 5379 5376 5371 5366 5361 5356 5347 5342
5352 5352 5350 5348 5349 5349 5350 5353 5358 5365 5368 5370 5380 5396 5405 5412 5416 5418 5421 5419 5416 5413 5414 5407 5409 5423 5419 5426 5418 5410 5422 5408 5396 5403 5397 5392 5377 5370 5365 5360 5357 5353 5348 5343
5347 5348 5347 5348 5348 5348 5350 5347 5363 5370 5372 5374 5372 5388 5399 5406 5410 5413 5416 5414 5416 5416 5413 5415 5421 5430 5416 5402 5399 5409 5409 5408 5413 5393 5388 5382 5375 5367 5364 5359 5356 5351 5347 5342
5344 5344 5345 5346 5347 5348 5353 5359 5366 5373 5376 5372 5365 5373 5389 5397 5405 5403 5407 5414 5415 5416 5416 5413 5413 5418 5421 5397 5395 5399 5397 5392 5389 5386 5382 5370 5368 5363 5362 5361 5357 5352 5346 5343
5341 5342 5344 5345 5347 5352 5358 5366 5371 5374 5378 5382 5370 5366 5373 5393 5390 5392 5403 5406 5409 5408 5410 5413 5412 5414 5415 5391 5387 5392 5388 5385 5382 5383 5382 5374 5369 5364 5360 5356 5353 5349 5345 5343
5338 5341 5342 5343 5346 5354 5363 5369 5374 5379 5381 5372 5376 5368 5363 5390 5390 5395 5396 5403 5386 5405 5400 5408 5406 5388 5393 5396 5384 5378 5378 5380 5376 5377 5372 5368 5362 5358 5352 5351 5349 5345 5341 5337
5336 5341 5343 5340 5353 5359 5365 5370 5367 5373 5381 5387 5378 5385 5372 5385 5380 5381 5387 5389 5387 5385 5391 5398 5381 5375 5403 5397 5383 5375 5376 5374 5372 5365 5361 5360 5355 5350 5348 5348 5345 5341 5336 5332
5332 5333 5337 5348 5354 5360 5367 5357 5361 5367 5375 5383 5386 5385 5380 5391 5376 5378 5393 5382 5384 5384 5381 5379 5371 5368 5372 5376 5367 5363 5362 5358 5356 5355 5351 5349 5348 5344 5342 5341 5338 5334 5330 5322
5343 5346 5351 5354 5359 5357 5360 5356 5364 5374 5380 5383 5378 5382 5387 5391 5398 5377 5382 5386 5376 5386 5378 5368 5356 5362 5361 5356 5352 5345 5341 5340 5340 5341 5340 5337 5338 5337 5334 5327 5322 5317 5313 5308
5345 5352 5353 5353 5348 5338 5348 5344 5365 5362 5373 5380 5380 5374 5379 5383 5380 5364 5366 5353 5355 5374 5347 5355 5356 5356 5349 5344 5338 5328 5323 5323 5324 5325 5326 5327 5325 5322 5316 5311 5308 5306 5302 5299
5343 5338 5319 5335 5334 5348 5357 5367 5361 5364 5370 5376 5371 5365 5364 5362 5358 5356 5353 5353 5359 5340 5346 5365 5352 5351 5342 5335 5327 5321 5313 5311 5310 5310 5311 5309 5307 5304 5302 5302 5302 5300 5295 5290
5338 5342 5332 5335 5343 5344 5351 5351 5357 5362 5370 5369 5364 5361 5361 5351 5342 5357 5355 5342 5346 5348 5365 5356 5350 5344 5337 5331 5324 5318 5310 5304 5300 5301 5301 5299 5298 5296 5291 5291 5291 5290 5288 5284
5334 5335 5338 5339 5338 5345 5352 5353 5357 5363 5363 5364 5362 5360 5349 5351 5356 5355 5346 5363 5360 5355 5350 5347 5343 5337 5332 5326 5321 5315 5309 5304 5297 5296 5297 5295 5292 5290 5288 5284 5284 5282 5281 5277
5336 5329 5335 5343 5342 5345 5345 5350 5347 5357 5356 5354 5357 5355 5367 5358 5359 5364 5356 5350 5353 5345 5342 5340 5337 5332 5326 5320 5315 5309 5304 5300 5296 5293 5292 5290 5288 5285 5283 5281 5278 5279 5275 5273